sat.trackr.live / text

‹ back to catalog

RASSVET-3 10

NORAD 68369 · 2026-061K

PAYLOAD ACTIVE UNKNOWN

§ Identity

Operator
Country
CIS
Launch date
2026-03-23
Launch site
PLMSC
Launch vehicle
Mass (kg)
RCS (m²)

External: N2YO · Heavens-Above · Gunter

§ Orbital elements

Epoch: 2026-09-20T03:03:40.739040Z

Period
94.81 min
Inclination
82.2823°
Eccentricity
0.0004314
Mean motion
15.18895155 rev/d
Perigee alt
506.2 km
Apogee alt
512.1 km
Semi-major
6,887.3 km
B*
7.2969e-5
RAAN
269.6121°
Arg perigee
118.6043°
Mean anomaly
241.5626°
Rev number
2,833

§ Raw data

RASSVET-3 101 68369U 26061K   26263.12755485  .00001553  00000+0  72969-4 0  99932 68369  82.2823 269.6121 0004314 118.6043 241.5626 15.18895155 28331

JSON: /api/v1/satellites/68369 · /tle

For live sub-satellite position, see the globe view (requires WebGL).

§ Visibility from observer

Set your observer location to see the next 7 days of passes ≥ 10°. The values pass through the URL so the page stays shareable.

No JS? Fill the form by hand. The geolocation button needs JavaScript.